User: anonymous   Login
Location: Donald C. Martin Observatory
(38.3885°N, 82.3916°W)
Time: 01:11:56
(UTC-05:00)
Language:

Cosmos 1484 Rocket - Orbit

View from above orbital plane
View from above orbital plane
View from above satellite
View from above satellite

Ground track
Ground track

The orbit data is extracted from the following two-line orbital elements,

1 14208U 83075B   17052.55774124  .00000321  00000-0  23059-4 0  9997
2 14208  97.3447  67.8574 0039869 167.8559 192.3642 15.10268866830050
Epoch (UTC): 21 February 2017 13:23:08
Eccentricity: 0.0039869
inclination: 97.3447°
perigee height: 508 km
apogee height: 563 km
right ascension of ascending node: 67.8574°
argument of perigee: 167.8559°
revolutions per day: 15.10268866
mean anomaly at epoch: 192.3642°
orbit number at epoch: 83005

The dashed part of the orbit path shows where the satellite is in the earth's shadow,  

DLR